La Grange, TX

8:03 AM CST on December 08, 2019 (GMT -0600)
La Grange

Weather History for K3T5 - November, 2019

Change the Weather History Date:

Wednesday, November 20, 2019

  Actual Average (WUND) Record (WUND)
Temperature  
Mean Temperature 70 °F -  
Max Temperature 83 °F - - (-1)
Min Temperature 57 °F - - (-1)
Cooling Degree Days 5    
Growing Degree Days 20 (Base 50)    
Moisture  
Dew Point 66 °F    
Average Humidity 87    
Maximum Humidity 100    
Minimum Humidity 53    
Precipitation  
Precipitation 0.02 in - - ()
Sea Level Pressure  
Sea Level Pressure 29.95 in    
Wind  
Wind Speed 6 mph (SSE)    
Max Wind Speed 20 mph    
Max Gust Speed 29 mph    
Visibility 7 miles    
Events Fog , Rain    
Averages and records for this station are not official NWS values.
T = Trace of Precipitation, MM = Missing Value Source: NWS Daily Summary

Daily Weather History Graph

Daily Weather History Graph

Search for Another Location

Airport or City:

Astronomy

Nov. 20, 2019 Rise Set
Actual Time 6:56 AM CST 5:29 PM CST
Civil Twilight 6:31 AM CST 5:55 PM CST
Nautical Twilight 6:02 AM CST 6:24 PM CST
Astronomical Twilight 5:33 AM CST 6:53 PM CST
Moon 12:22 AM CST (11/20) 1:51 PM CST (11/20)
Length of Visible Light 11h 24m
Length of Day
10h 33m
Last Quarter, 40% of the Moon is Illuminated
Nov 20
Last Quarter
Nov 26
New
Dec 4
First Quarter
Dec 11
Full
Dec 18
Last Quarter

Hourly Weather History & Observations

Time (CST) Temp. Heat Index Dew Point Humidity Pressure Visibility Wind Dir Wind Speed Gust Speed Precip Events Conditions
12:15 AM 62.6 °F - 62.6 °F 100% 29.96 in 10.0 mi SE 3.5 mph - N/A   Scattered Clouds
12:35 AM 63.0 °F - 63.0 °F 100% 29.96 in 10.0 mi SSE 3.5 mph - N/A   Mostly Cloudy
12:55 AM 63.1 °F - 63.1 °F 100% 29.95 in 10.0 mi SE 3.5 mph - N/A   Mostly Cloudy
1:15 AM 62.6 °F - 62.6 °F 100% 29.95 in 7.0 mi SE 3.5 mph - N/A   Overcast
1:35 AM 62.6 °F - 62.6 °F 100% 29.95 in 7.0 mi Calm Calm - N/A   Mostly Cloudy
1:55 AM 61.9 °F - 61.9 °F 100% 29.95 in 7.0 mi Calm Calm - N/A   Mostly Cloudy
2:15 AM 61.7 °F - 61.7 °F 100% 29.96 in 5.0 mi Calm Calm - N/A   Overcast
2:35 AM 61.5 °F - 61.5 °F 100% 29.95 in 5.0 mi Calm Calm - N/A   Mostly Cloudy
2:55 AM 60.8 °F - 60.8 °F 100% 29.96 in 1.8 mi Calm Calm - N/A   Mostly Cloudy
3:15 AM 60.1 °F - 60.1 °F 100% 29.96 in 2.5 mi Calm Calm - N/A   Mostly Cloudy
3:35 AM 59.5 °F - 59.5 °F 100% 29.96 in 1.5 mi Calm Calm - N/A   Mostly Cloudy
3:55 AM 58.8 °F - 58.8 °F 100% 29.95 in 0.2 mi Calm Calm - N/A Fog Fog
4:15 AM 59.7 °F - 59.7 °F 100% 29.95 in 0.5 mi Calm Calm - N/A Fog Fog
4:35 AM 58.1 °F - 58.1 °F 100% 29.96 in 0.2 mi Calm Calm - N/A Fog Fog
4:55 AM 57.9 °F - 57.9 °F 100% 29.95 in 0.5 mi SSE 3.5 mph - N/A Fog Fog
5:15 AM 61.7 °F - 61.7 °F 100% 29.95 in 3.0 mi SSE 3.5 mph - N/A   Overcast
5:35 AM 61.3 °F - 61.3 °F 100% 29.95 in 2.0 mi Calm Calm - N/A   Overcast
5:55 AM 61.7 °F - 61.7 °F 100% 29.96 in 1.2 mi Calm Calm - N/A   Overcast
6:55 AM 62.1 °F - 62.1 °F 100% 29.97 in 0.5 mi Calm Calm - N/A Fog Fog
7:35 AM 62.4 °F - 62.4 °F 100% 29.98 in 1.0 mi ESE 3.5 mph - N/A   Overcast
7:55 AM 63.0 °F - 63.0 °F 100% 29.99 in 1.2 mi SE 3.5 mph - N/A   Overcast
8:15 AM 63.0 °F - 63.0 °F 100% 29.99 in 1.2 mi SE 3.5 mph - N/A   Overcast
8:35 AM 64.4 °F - 64.4 °F 100% 29.99 in 0.8 mi SE 3.5 mph - N/A   Overcast
8:55 AM 65.1 °F - 65.1 °F 100% 30.00 in 2.5 mi SE 3.5 mph - N/A   Overcast
9:15 AM 66.6 °F - 66.6 °F 100% 29.99 in 3.0 mi SE 6.9 mph - N/A   Overcast
9:35 AM 67.8 °F - 67.8 °F 100% 29.99 in 7.0 mi SE 4.6 mph - N/A   Overcast
9:55 AM 69.4 °F - 69.4 °F 100% 29.99 in 10.0 mi SE 4.6 mph - N/A   Overcast
10:15 AM 72.5 °F - 72.5 °F 100% 29.99 in 10.0 mi South 12.7 mph - N/A   Overcast
10:35 AM 77.5 °F - 68.7 °F 74% 29.98 in 10.0 mi South 15.0 mph 24.2 mph N/A   Overcast
10:55 AM 78.1 °F - 68.2 °F 71% 29.97 in 10.0 mi South 17.3 mph 23.0 mph N/A   Mostly Cloudy
11:15 AM 79.0 °F - 68.0 °F 69% 29.96 in 10.0 mi SSE 16.1 mph 20.7 mph N/A   Overcast
11:35 AM 79.2 °F - 67.1 °F 66% 29.95 in 10.0 mi South 16.1 mph 26.5 mph N/A   Mostly Cloudy
11:55 AM 79.9 °F - 66.6 °F 64% 29.94 in 10.0 mi South 16.1 mph 24.2 mph N/A   Mostly Cloudy
12:55 PM 82.4 °F 84.2 °F 65.1 °F 56% 29.93 in 10.0 mi South 17.3 mph 25.3 mph N/A   Mostly Cloudy
1:55 PM 82.8 °F 84.7 °F 65.7 °F 56% 29.89 in 10.0 mi SSE 12.7 mph 25.3 mph N/A   Mostly Cloudy
2:15 PM - - - N/A% 29.89 in 10.0 mi South 17.3 mph 25.3 mph N/A   Mostly Cloudy
2:35 PM 83.3 °F 84.8 °F 64.4 °F 53% 29.89 in 10.0 mi SSE 19.6 mph 28.8 mph N/A   Mostly Cloudy
2:55 PM 82.0 °F 83.4 °F 63.9 °F 54% 29.89 in 10.0 mi South 16.1 mph 27.6 mph N/A   Mostly Cloudy
3:15 PM 82.8 °F 84.2 °F 64.0 °F 53% 29.89 in 10.0 mi SSE 19.6 mph 27.6 mph N/A   Mostly Cloudy
3:35 PM 81.7 °F 83.0 °F 63.5 °F 54% 29.89 in 10.0 mi SSE 18.4 mph 28.8 mph N/A   Mostly Cloudy
3:55 PM 80.2 °F 82.2 °F 65.7 °F 61% 29.89 in 10.0 mi SSE 16.1 mph 24.2 mph N/A   Mostly Cloudy
4:15 PM 78.1 °F - 66.4 °F 67% 29.89 in 10.0 mi SSE 15.0 mph 26.5 mph N/A   Scattered Clouds
4:35 PM 77.9 °F - 66.9 °F 69% 29.90 in 10.0 mi SSE 11.5 mph 19.6 mph N/A   Clear
4:55 PM 77.2 °F - 67.1 °F 71% 29.91 in 10.0 mi SSE 12.7 mph - N/A   Scattered Clouds
5:15 PM 76.8 °F - 66.7 °F 71% 29.91 in 10.0 mi SSE 13.8 mph 17.3 mph N/A   Mostly Cloudy
5:55 PM 75.6 °F - 67.5 °F 76% 29.91 in 10.0 mi SSE 12.7 mph 20.7 mph N/A   Mostly Cloudy
6:15 PM 74.8 °F - 67.5 °F 78% 29.91 in 10.0 mi SSE 10.4 mph - N/A   Mostly Cloudy
6:35 PM 74.5 °F - 68.0 °F 80% 29.91 in 10.0 mi SSE 9.2 mph - N/A   Mostly Cloudy
6:55 PM 74.5 °F - 68.4 °F 81% 29.92 in 10.0 mi SSE 9.2 mph 16.1 mph N/A   Mostly Cloudy
7:15 PM 74.5 °F - 68.9 °F 83% 29.93 in 10.0 mi SSE 6.9 mph - N/A   Overcast
7:35 PM 74.3 °F - 68.9 °F 83% 29.93 in 10.0 mi SSE 9.2 mph 16.1 mph N/A   Overcast
7:55 PM 74.1 °F - 69.3 °F 85% 29.94 in 10.0 mi SSE 9.2 mph - N/A   Overcast
8:35 PM 74.1 °F - 70.0 °F 87% 29.93 in 10.0 mi SSE 11.5 mph 16.1 mph N/A   Overcast
8:55 PM 73.9 °F - 70.3 °F 88% 29.94 in 10.0 mi SSE 11.5 mph 18.4 mph N/A   Overcast
9:15 PM 73.4 °F - 70.9 °F 92% 29.95 in 10.0 mi South 10.4 mph 16.1 mph N/A   Overcast
9:35 PM 73.4 °F - 71.1 °F 92% 29.96 in 10.0 mi South 8.1 mph - N/A   Overcast
9:55 PM 73.4 °F - 71.6 °F 94% 29.95 in 10.0 mi SSE 9.2 mph - N/A   Overcast
10:15 PM 73.4 °F - 72.0 °F 95% 29.95 in 7.0 mi South 9.2 mph - N/A Rain Rain
10:35 PM 72.5 °F - 72.5 °F 100% 29.96 in 10.0 mi South 8.1 mph - 0.02 in Rain Light Rain
10:55 PM 72.5 °F - 72.5 °F 100% 29.96 in 10.0 mi South 10.4 mph - 0.02 in   Overcast
11:15 PM 72.7 °F - 72.7 °F 100% 29.96 in 10.0 mi South 9.2 mph - N/A   Overcast
11:35 PM 72.7 °F - 72.7 °F 100% 29.96 in 10.0 mi South 5.8 mph - N/A   Overcast
11:55 PM 72.5 °F - 72.5 °F 100% 29.95 in 10.0 mi SSE 9.2 mph - N/A   Overcast